QTR663 VCBI-OTHH

Flight info

Callsign QTR663
Flight time N/A
Altitude 38000
Route KAT R461 MDI M300 OSIRI/N0485F400 M300 EMURU N563 SODEX DCT UMIBU/N0484F340 P899 TOVOX
Aircraft A35K/H-SDE2E3GHIJ3J4J5LM1ORWXY/LB1D1

Departure

Time 2026-05-08 00:48
Airport Bandaranaike International Colombo Airport (VCBI)

Arrival

Time N/A
Airport Hamad International Airport (OTHH)
Time Latitude Longitude Altitude Speed Heading
2026-05-08 00:37 7.17609 79.88411 44 ft 0 kts 37°
2026-05-08 00:41 7.17596 79.88401 42 ft 2 kts 31°
2026-05-08 00:41 7.17582 79.88393 43 ft 2 kts 24°
2026-05-08 00:42 7.17566 79.88388 41 ft 2 kts
2026-05-08 00:42 7.17549 79.88387 42 ft 2 kts 347°
2026-05-08 00:42 7.17534 79.88393 40 ft 2 kts 324°
2026-05-08 00:42 7.17522 79.88404 40 ft 2 kts 310°
2026-05-08 00:43 7.17520 79.88407 41 ft 0 kts 309°
2026-05-08 00:44 7.17523 79.88404 40 ft 3 kts 309°
2026-05-08 00:44 7.17545 79.88376 39 ft 6 kts 309°
2026-05-08 00:45 7.17577 79.88334 44 ft 9 kts 306°
2026-05-08 00:45 7.17616 79.88278 44 ft 11 kts 297°
2026-05-08 00:45 7.17591 79.88200 44 ft 15 kts 224°
2026-05-08 00:45 7.17493 79.88124 44 ft 20 kts 217°
2026-05-08 00:46 7.17372 79.88032 44 ft 23 kts 217°
2026-05-08 00:46 7.17242 79.87933 44 ft 24 kts 217°
2026-05-08 00:46 7.17106 79.87829 44 ft 25 kts 217°
2026-05-08 00:46 7.16979 79.87731 44 ft 18 kts 218°
2026-05-08 00:47 7.16886 79.87659 44 ft 19 kts 218°
2026-05-08 00:47 7.16872 79.87550 45 ft 16 kts 306°
2026-05-08 00:47 7.16950 79.87493 46 ft 13 kts
2026-05-08 00:47 7.17032 79.87543 45 ft 17 kts 38°
2026-05-08 00:48 7.17282 79.87737 45 ft 80 kts 37°
2026-05-08 00:48 7.17901 79.88210 45 ft 141 kts 37°
2026-05-08 00:48 7.18769 79.88880 390 ft 161 kts 38°
2026-05-08 00:48 7.19653 79.89556 1020 ft 168 kts 37°
2026-05-08 00:49 7.20644 79.90307 1365 ft 190 kts 37°
2026-05-08 00:49 7.21757 79.91169 1714 ft 211 kts 38°
2026-05-08 00:49 7.22968 79.92122 2053 ft 234 kts 38°
2026-05-08 00:49 7.24297 79.93174 2549 ft 249 kts 38°
2026-05-08 00:50 7.25806 79.94044 3241 ft 255 kts 17°
2026-05-08 00:50 7.27582 79.94165 3964 ft 259 kts 351°
2026-05-08 00:50 7.29348 79.93738 4697 ft 264 kts 344°
2026-05-08 00:50 7.31111 79.93192 5417 ft 268 kts 343°
2026-05-08 00:51 7.32700 79.92549 6063 ft 274 kts 332°
2026-05-08 00:51 7.34285 79.91470 6774 ft 278 kts 323°
2026-05-08 00:51 7.35778 79.90232 7499 ft 282 kts 319°
2026-05-08 00:51 7.37246 79.88888 8280 ft 286 kts 317°
2026-05-08 00:52 7.38696 79.87498 9058 ft 289 kts 316°
2026-05-08 00:52 7.40128 79.86107 9818 ft 293 kts 316°
2026-05-08 00:52 7.41646 79.84637 10432 ft 304 kts 317°
2026-05-08 00:52 7.43194 79.83154 10779 ft 322 kts 317°
2026-05-08 00:53 7.44875 79.81558 11152 ft 338 kts 317°
2026-05-08 00:53 7.46628 79.79903 11541 ft 352 kts 317°
2026-05-08 00:53 7.48437 79.78201 12087 ft 359 kts 317°
2026-05-08 00:53 7.50286 79.76462 12688 ft 365 kts 317°
2026-05-08 00:54 7.52149 79.74709 13296 ft 370 kts 317°
2026-05-08 00:54 7.54036 79.72933 13876 ft 374 kts 317°
2026-05-08 00:54 7.55962 79.71119 14431 ft 378 kts 317°
2026-05-08 00:54 7.57878 79.69313 14972 ft 382 kts 317°
2026-05-08 00:55 7.59839 79.67465 15523 ft 385 kts 317°
2026-05-08 00:55 7.61805 79.65612 16081 ft 388 kts 317°
2026-05-08 00:55 7.63784 79.63747 16618 ft 392 kts 317°
2026-05-08 00:55 7.65794 79.61851 17158 ft 395 kts 317°
2026-05-08 00:56 7.67809 79.59951 17694 ft 398 kts 317°
2026-05-08 00:56 7.69828 79.58047 18211 ft 401 kts 317°
2026-05-08 00:56 7.71879 79.56112 18648 ft 405 kts 317°
2026-05-08 00:56 7.73947 79.54161 19097 ft 408 kts 317°
2026-05-08 00:57 7.76035 79.52191 19550 ft 411 kts 317°
2026-05-08 00:57 7.78106 79.50237 20003 ft 414 kts 317°
2026-05-08 00:57 7.80208 79.48253 20457 ft 417 kts 317°
2026-05-08 00:57 7.82344 79.46238 20941 ft 421 kts 317°
2026-05-08 00:58 7.84506 79.44221 21382 ft 424 kts 319°
2026-05-08 00:58 7.86825 79.42382 21851 ft 427 kts 323°
2026-05-08 00:58 7.89246 79.40606 22303 ft 430 kts 324°
2026-05-08 00:58 7.91709 79.38858 22774 ft 433 kts 325°
2026-05-08 00:59 7.94189 79.37128 23237 ft 436 kts 326°
2026-05-08 00:59 7.96703 79.35385 23626 ft 440 kts 326°
2026-05-08 00:59 7.99224 79.33636 23997 ft 443 kts 326°
2026-05-08 00:59 8.01775 79.31863 24366 ft 445 kts 326°
2026-05-08 01:00 8.04340 79.30074 24748 ft 448 kts 325°
2026-05-08 01:00 8.06913 79.28276 25158 ft 451 kts 325°
2026-05-08 01:00 8.09502 79.26464 25588 ft 454 kts 325°
2026-05-08 01:00 8.12082 79.24658 26027 ft 457 kts 325°
2026-05-08 01:01 8.14690 79.22832 26468 ft 460 kts 326°
2026-05-08 01:01 8.17348 79.20971 26921 ft 464 kts 326°
2026-05-08 01:01 8.20004 79.19110 27364 ft 467 kts 326°
2026-05-08 01:01 8.22684 79.17233 27812 ft 470 kts 326°
2026-05-08 01:02 8.25390 79.15338 28254 ft 474 kts 326°
2026-05-08 01:02 8.28071 79.13459 28676 ft 477 kts 326°
2026-05-08 01:02 8.30849 79.11513 29085 ft 481 kts 326°
2026-05-08 01:02 8.33575 79.09603 29499 ft 484 kts 326°
2026-05-08 01:03 8.36340 79.07665 29892 ft 487 kts 326°
2026-05-08 01:03 8.39153 79.05692 30230 ft 490 kts 326°
2026-05-08 01:03 8.41959 79.03725 30592 ft 493 kts 326°
2026-05-08 01:03 8.44764 79.01757 30943 ft 495 kts 326°
2026-05-08 01:04 8.47619 78.99755 31295 ft 498 kts 326°
2026-05-08 01:04 8.50450 78.97769 31642 ft 500 kts 326°
2026-05-08 01:04 8.53346 78.95736 31985 ft 502 kts 326°
2026-05-08 01:04 8.56195 78.93737 32293 ft 505 kts 326°
2026-05-08 01:05 8.59129 78.91720 32604 ft 507 kts 327°
2026-05-08 01:05 8.62084 78.89751 32907 ft 509 kts 327°
2026-05-08 01:05 8.65057 78.87796 33199 ft 511 kts 327°
2026-05-08 01:05 8.68007 78.85859 33490 ft 513 kts 327°
2026-05-08 01:06 8.71011 78.83880 33847 ft 513 kts 327°
2026-05-08 01:06 8.74000 78.81903 34201 ft 512 kts 327°
2026-05-08 01:06 8.76961 78.79937 34541 ft 512 kts 327°
2026-05-08 01:06 8.79944 78.77953 34877 ft 511 kts 327°
2026-05-08 01:07 8.81938 78.76625 35097 ft 511 kts 327°
2026-05-08 01:07 8.85871 78.74004 35546 ft 510 kts 327°
2026-05-08 01:07 8.88849 78.72019 35881 ft 509 kts 327°
2026-05-08 01:07 8.91790 78.70059 36202 ft 508 kts 327°
2026-05-08 01:08 8.94748 78.68087 36523 ft 508 kts 327°
2026-05-08 01:08 8.97707 78.66114 36843 ft 507 kts 327°
2026-05-08 01:08 9.00631 78.64166 37168 ft 506 kts 327°
2026-05-08 01:08 9.03579 78.62199 37477 ft 505 kts 327°
2026-05-08 01:09 9.06507 78.60247 37757 ft 505 kts 327°
2026-05-08 01:09 9.12401 78.56314 37836 ft 506 kts 327°
2026-05-08 01:10 9.18248 78.52412 37837 ft 506 kts 327°
2026-05-08 01:10 9.24131 78.48484 37842 ft 507 kts 327°
2026-05-08 01:11 9.30019 78.44551 37845 ft 507 kts 327°
2026-05-08 01:11 9.35928 78.40603 37844 ft 508 kts 327°
2026-05-08 01:12 9.41816 78.36667 37847 ft 508 kts 327°
2026-05-08 01:12 9.47720 78.32718 37849 ft 508 kts 327°
2026-05-08 01:13 9.53596 78.28787 37855 ft 509 kts 327°
2026-05-08 01:13 9.59507 78.24830 37859 ft 509 kts 327°
2026-05-08 01:14 9.65404 78.20881 37857 ft 508 kts 327°
2026-05-08 01:14 9.71284 78.16942 37854 ft 507 kts 327°
2026-05-08 01:15 9.77185 78.12987 37857 ft 507 kts 327°
2026-05-08 01:15 9.82738 78.08612 37855 ft 506 kts 314°
2026-05-08 01:16 9.86909 78.02955 37859 ft 505 kts 302°
2026-05-08 01:16 9.90646 77.96913 37859 ft 505 kts 301°
2026-05-08 01:17 9.94330 77.90839 37870 ft 505 kts 301°
2026-05-08 01:17 9.98028 77.84788 37884 ft 505 kts 302°
2026-05-08 01:18 10.01743 77.78741 37899 ft 505 kts 302°
2026-05-08 01:18 10.05482 77.72665 37909 ft 506 kts 302°
2026-05-08 01:19 10.09211 77.66599 37920 ft 507 kts 302°
2026-05-08 01:19 10.12896 77.60600 37929 ft 508 kts 302°
2026-05-08 01:20 10.16651 77.54484 37936 ft 509 kts 302°
2026-05-08 01:20 10.20396 77.48379 37945 ft 510 kts 302°
2026-05-08 01:21 10.24157 77.42246 37945 ft 511 kts 302°
2026-05-08 01:21 10.27886 77.36162 37952 ft 511 kts 302°
2026-05-08 01:22 10.31659 77.30001 37951 ft 510 kts 302°
2026-05-08 01:22 10.35388 77.23912 37946 ft 509 kts 302°
2026-05-08 01:23 10.39127 77.17801 37944 ft 508 kts 302°
2026-05-08 01:23 10.42228 77.12729 37944 ft 507 kts 302°
2026-05-08 01:24 10.45945 77.06648 37932 ft 507 kts 302°
2026-05-08 01:24 10.49669 77.00553 37927 ft 507 kts 302°
2026-05-08 01:25 10.53998 76.93462 37919 ft 506 kts 302°
2026-05-08 01:25 10.57104 76.88374 37920 ft 506 kts 302°
2026-05-08 01:26 10.60784 76.82340 37909 ft 507 kts 302°
2026-05-08 01:26 10.64512 76.76224 37906 ft 507 kts 302°
2026-05-08 01:27 10.68233 76.70116 37895 ft 508 kts 302°
2026-05-08 01:27 10.71953 76.64007 37893 ft 509 kts 302°
2026-05-08 01:28 10.75679 76.57884 37888 ft 510 kts 302°
2026-05-08 01:28 10.79400 76.51767 37884 ft 509 kts 302°
2026-05-08 01:29 10.83121 76.45645 37878 ft 509 kts 302°
2026-05-08 01:29 10.86836 76.39529 37871 ft 508 kts 301°
2026-05-08 01:30 10.90546 76.33419 37873 ft 507 kts 301°
2026-05-08 01:30 10.94259 76.27300 37861 ft 507 kts 301°
2026-05-08 01:31 10.97931 76.21247 37857 ft 507 kts 301°
2026-05-08 01:31 11.01634 76.15137 37840 ft 507 kts 301°
2026-05-08 01:32 11.05345 76.09010 37834 ft 506 kts 301°
2026-05-08 01:32 11.09045 76.02899 37825 ft 506 kts 301°
2026-05-08 01:33 11.12730 75.96808 37827 ft 506 kts 301°
2026-05-08 01:33 11.16577 75.90798 37831 ft 506 kts 305°
2026-05-08 01:34 11.20749 75.84995 37830 ft 507 kts 306°
2026-05-08 01:34 11.24906 75.79200 37832 ft 506 kts 305°
2026-05-08 01:35 11.28894 75.73296 37829 ft 506 kts 303°
2026-05-08 01:35 11.32840 75.67339 37828 ft 506 kts 303°
2026-05-08 01:36 11.36773 75.61430 37824 ft 506 kts 303°
2026-05-08 01:36 11.40769 75.55456 37817 ft 506 kts 303°
2026-05-08 01:37 11.44708 75.49572 37813 ft 506 kts 303°
2026-05-08 01:37 11.48668 75.43653 37811 ft 506 kts 303°
2026-05-08 01:38 11.52642 75.37707 37806 ft 505 kts 303°
2026-05-08 01:38 11.56600 75.31783 37802 ft 505 kts 303°
2026-05-08 01:39 11.60524 75.25905 37805 ft 504 kts 303°
2026-05-08 01:39 11.64485 75.19969 37800 ft 504 kts 303°
2026-05-08 01:40 11.68427 75.14057 37804 ft 504 kts 303°
2026-05-08 01:40 11.72364 75.08149 37800 ft 503 kts 303°
2026-05-08 01:41 11.76294 75.02248 37801 ft 503 kts 303°
2026-05-08 01:41 11.80235 74.96328 37805 ft 503 kts 303°
2026-05-08 01:42 11.84142 74.90456 37804 ft 502 kts 303°
2026-05-08 01:42 11.88046 74.84583 37803 ft 502 kts 303°
2026-05-08 01:43 11.91974 74.78671 37806 ft 502 kts 303°
2026-05-08 01:43 11.95909 74.72746 37809 ft 501 kts 303°
2026-05-08 01:44 11.99825 74.66844 37805 ft 501 kts 303°
2026-05-08 01:44 12.03717 74.60975 37808 ft 501 kts 303°
2026-05-08 01:45 12.07608 74.55105 37807 ft 501 kts 303°
2026-05-08 01:45 12.11521 74.49199 37805 ft 501 kts 303°
2026-05-08 01:46 12.15430 74.43295 37808 ft 502 kts 303°
2026-05-08 01:46 12.19327 74.37406 37806 ft 502 kts 303°
2026-05-08 01:47 12.23251 74.31469 37809 ft 502 kts 303°
2026-05-08 01:47 12.27174 74.25532 37812 ft 503 kts 303°
2026-05-08 01:48 12.32892 74.16529 37805 ft 503 kts 302°
2026-05-08 01:48 12.36655 74.10534 37808 ft 503 kts 302°
2026-05-08 01:49 12.40445 74.04530 37811 ft 503 kts 302°
2026-05-08 01:49 12.44255 73.98509 37811 ft 504 kts 303°
2026-05-08 01:50 12.48072 73.92475 37810 ft 504 kts 303°
2026-05-08 01:50 12.51885 73.86442 37810 ft 504 kts 303°
2026-05-08 01:51 12.55652 73.80477 37810 ft 503 kts 303°
2026-05-08 01:51 12.59454 73.74453 37810 ft 502 kts 303°
2026-05-08 01:52 12.63247 73.68438 37811 ft 502 kts 303°
2026-05-08 01:52 12.67029 73.62439 37816 ft 501 kts 303°
2026-05-08 01:53 12.70818 73.56423 37814 ft 502 kts 303°
2026-05-08 01:53 12.74603 73.50411 37816 ft 501 kts 303°
2026-05-08 01:54 12.78384 73.44401 37817 ft 502 kts 303°
2026-05-08 01:54 12.82141 73.38434 37817 ft 502 kts 303°
2026-05-08 01:55 12.85924 73.32405 37815 ft 502 kts 303°
2026-05-08 01:55 12.89708 73.26372 37818 ft 502 kts 303°
2026-05-08 01:56 12.93488 73.20345 37818 ft 502 kts 303°
2026-05-08 01:56 12.97273 73.14308 37818 ft 502 kts 303°
2026-05-08 01:57 13.01022 73.08325 37821 ft 502 kts 303°
2026-05-08 01:57 13.04795 73.02298 37822 ft 502 kts 303°
2026-05-08 01:58 13.08566 72.96271 37820 ft 501 kts 303°
2026-05-08 01:58 13.12326 72.90257 37820 ft 501 kts 303°
2026-05-08 01:59 13.16095 72.84224 37819 ft 501 kts 303°
2026-05-08 01:59 13.19851 72.78209 37819 ft 501 kts 303°
2026-05-08 02:00 13.23608 72.72187 37816 ft 501 kts 303°
2026-05-08 02:00 13.25490 72.69170 37815 ft 501 kts 303°